SV2RCS-13 Weather Reports


time (UTC)temp
C
wind
direction
speed
KPH
gust
KPH
rain 1hr
cm
rain 24hr
cm
rain mn
cm
humidity
%
barometer
mb
20260906051921 27 0.0 0.0 0.00 0.00 0.00 19 1015.6
20260906050921 27 0.0 0.0 0.00 0.00 0.00 21 1015.6
20260906045921 26 0.0 0.0 0.00 0.00 0.00 23 1015.9
20260906044921 25 0.0 0.0 0.00 0.00 0.00 24 1016.5
20260906043921 23 0.0 0.0 0.00 0.00 0.00 28 1016.7
20260906042921 22 0.0 0.0 0.00 0.00 0.00 29 1017.1
20260906041921 21 0.0 0.0 0.00 0.00 0.00 30 1017.3
20260906040921 21 0.0 0.0 0.00 0.00 0.00 32 1017.3
20260906035921 21 0.0 0.0 0.00 0.00 0.00 33 1017.5
20260906034923 21 0.0 0.0 0.00 0.00 0.00 31 1017.2
20260906033921 21 0.0 0.0 0.00 0.00 0.00 33 1016.9
20260906032921 21 0.0 0.0 0.00 0.00 0.00 33 1017.0
20260906031921 20 0.0 0.0 0.00 0.00 0.00 34 1017.0
20260906030921 20 0.0 0.0 0.00 0.00 0.00 34 1017.1
20260906025922 20 0.0 0.0 0.00 0.00 0.00 34 1016.9
20260906024922 21 0.0 0.0 0.00 0.00 0.00 34 1016.7
20260906023922 21 0.0 0.0 0.00 0.00 0.00 34 1016.8
20260906022921 21 0.0 0.0 0.00 0.00 0.00 34 1016.7
20260906021922 21 0.0 0.0 0.00 0.00 0.00 34 1016.6
20260906020921 21 0.0 0.0 0.00 0.00 0.00 34 1016.6
20260906015921 21 0.0 0.0 0.00 0.00 0.00 34 1016.8
20260906014921 21 0.0 0.0 0.00 0.00 0.00 32 1016.8
20260906013921 21 0.0 0.0 0.00 0.00 0.00 32 1016.7
20260906012921 21 0.0 0.0 0.00 0.00 0.00 32 1016.7
20260906011921 21 0.0 0.0 0.00 0.00 0.00 34 1016.7
20260906010922 21 0.0 0.0 0.00 0.00 0.00 32 1016.6
20260906005921 21 0.0 0.0 0.00 0.00 0.00 32 1016.6
20260906004921 21 0.0 0.0 0.00 0.00 0.00 32 1016.7
20260906003921 21 0.0 0.0 0.00 0.00 0.00 32 1016.6
20260906002924 21 0.0 0.0 0.00 0.00 0.00 32 1016.6
20260906001921 21 0.0 0.0 0.00 0.00 0.00 31 1016.6
20260906000921 21 0.0 0.0 0.00 0.00 0.00 32 1016.7
20260905235922 21 0.0 0.0 0.00 0.00 0.00 32 1016.9
20260905234921 21 0.0 0.0 0.00 0.00 0.00 31 1016.6
20260905233921 22 0.0 0.0 0.00 0.00 0.00 31 1016.5
20260905232921 21 0.0 0.0 0.00 0.00 0.00 31 1016.6
20260905231921 22 0.0 0.0 0.00 0.00 0.00 30 1016.5
20260905230921 22 0.0 0.0 0.00 0.00 0.00 30 1016.4
20260905225921 22 0.0 0.0 0.00 0.00 0.00 30 1016.5
20260905224925 22 0.0 0.0 0.00 0.00 0.00 29 1016.5
20260905223922 22 0.0 0.0 0.00 0.00 0.00 28 1016.5
20260905222922 22 0.0 0.0 0.00 0.00 0.00 28 1016.5
20260905221922 22 0.0 0.0 0.00 0.00 0.00 29 1016.6
20260905220921 22 0.0 0.0 0.00 0.00 0.00 29 1016.6
20260905215921 22 0.0 0.0 0.00 0.00 0.00 29 1016.6
20260905214921 22 0.0 0.0 0.00 0.00 0.00 29 1016.5
20260905213921 22 0.0 0.0 0.00 0.00 0.00 31 1016.6
20260905212922 22 0.0 0.0 0.00 0.00 0.00 31 1016.5
20260905211921 23 0.0 0.0 0.00 0.00 0.00 31 1016.4
20260905210921 23 0.0 0.0 0.00 0.00 0.00 30 1016.4
20260905205921 23 0.0 0.0 0.00 0.00 0.00 30 1016.5
20260905204924 23 0.0 0.0 0.00 0.00 0.00 31 1016.4
20260905203922 23 0.0 0.0 0.00 0.00 0.00 30 1016.3
20260905202924 23 0.0 0.0 0.00 0.00 0.00 29 1016.2
20260905201921 23 0.0 0.0 0.00 0.00 0.00 29 1016.1
20260905200922 23 0.0 0.0 0.00 0.00 0.00 28 1016.1
20260905195921 23 0.0 0.0 0.00 0.00 0.00 26 1016.1
20260905194921 24 0.0 0.0 0.00 0.00 0.00 25 1015.9
20260905193922 23 0.0 0.0 0.00 0.00 0.00 26 1016.0
20260905192921 23 0.0 0.0 0.00 0.00 0.00 27 1016.0
20260905191921 23 0.0 0.0 0.00 0.00 0.00 27 1016.0
20260905190922 24 0.0 0.0 0.00 0.00 0.00 26 1015.8
20260905185921 24 0.0 0.0 0.00 0.00 0.00 26 1015.6
20260905184921 24 0.0 0.0 0.00 0.00 0.00 25 1015.5
20260905183921 24 0.0 0.0 0.00 0.00 0.00 25 1015.4
20260905182921 25 0.0 0.0 0.00 0.00 0.00 24 1015.1
20260905181925 25 0.0 0.0 0.00 0.00 0.00 24 1015.1
20260905180921 25 0.0 0.0 0.00 0.00 0.00 25 1014.9
20260905175921 25 0.0 0.0 0.00 0.00 0.00 24 1015.0
20260905174922 25 0.0 0.0 0.00 0.00 0.00 24 1014.7
20260905173923 25 0.0 0.0 0.00 0.00 0.00 24 1014.5
20260905172921 25 0.0 0.0 0.00 0.00 0.00 23 1014.3
20260905171921 26 0.0 0.0 0.00 0.00 0.00 23 1014.1
20260905170922 26 0.0 0.0 0.00 0.00 0.00 22 1014.1
20260905165922 26 0.0 0.0 0.00 0.00 0.00 23 1013.9
20260905164921 27 0.0 0.0 0.00 0.00 0.00 21 1013.6
20260905163924 27 0.0 0.0 0.00 0.00 0.00 19 1013.2
20260905162922 28 0.0 0.0 0.00 0.00 0.00 18 1013.1
20260905161921 28 0.0 0.0 0.00 0.00 0.00 18 1013.0
20260905160921 28 0.0 0.0 0.00 0.00 0.00 18 1013.1
20260905155921 28 0.0 0.0 0.00 0.00 0.00 18 1013.0
20260905154921 28 0.0 0.0 0.00 0.00 0.00 17 1012.9
20260905153921 28 0.0 0.0 0.00 0.00 0.00 16 1012.8
20260905152922 28 0.0 0.0 0.00 0.00 0.00 16 1012.9
20260905151921 29 0.0 0.0 0.00 0.00 0.00 16 1012.7
20260905150922 29 0.0 0.0 0.00 0.00 0.00 16 1012.7
20260905145921 29 0.0 0.0 0.00 0.00 0.00 16 1012.7
20260905144921 30 0.0 0.0 0.00 0.00 0.00 16 1012.5
20260905143921 29 0.0 0.0 0.00 0.00 0.00 16 1012.7
20260905142921 29 0.0 0.0 0.00 0.00 0.00 16 1012.8
20260905141921 29 0.0 0.0 0.00 0.00 0.00 16 1012.8
20260905140921 29 0.0 0.0 0.00 0.00 0.00 16 1012.9
20260905135921 29 0.0 0.0 0.00 0.00 0.00 16 1013.0
20260905134921 29 0.0 0.0 0.00 0.00 0.00 16 1013.1
20260905133921 29 0.0 0.0 0.00 0.00 0.00 17 1013.3
20260905132921 29 0.0 0.0 0.00 0.00 0.00 17 1013.3
20260905131922 29 0.0 0.0 0.00 0.00 0.00 17 1013.4
20260905130921 29 0.0 0.0 0.00 0.00 0.00 17 1013.5
20260905125921 29 0.0 0.0 0.00 0.00 0.00 18 1013.6
20260905124921 28 0.0 0.0 0.00 0.00 0.00 18 1013.7
20260905123921 28 0.0 0.0 0.00 0.00 0.00 18 1013.7
20260905122921 28 0.0 0.0 0.00 0.00 0.00 18 1013.8
20260905121921 28 0.0 0.0 0.00 0.00 0.00 18 1014.0
20260905120920 28 0.0 0.0 0.00 0.00 0.00 18 1014.0
20260905115921 28 0.0 0.0 0.00 0.00 0.00 18 1014.1
20260905114920 28 0.0 0.0 0.00 0.00 0.00 18 1014.3
20260905113921 28 0.0 0.0 0.00 0.00 0.00 18 1014.4
20260905112922 28 0.0 0.0 0.00 0.00 0.00 18 1014.5
20260905111921 28 0.0 0.0 0.00 0.00 0.00 18 1014.5
20260905110921 28 0.0 0.0 0.00 0.00 0.00 18 1014.5
20260905105921 28 0.0 0.0 0.00 0.00 0.00 18 1014.8
20260905104921 28 0.0 0.0 0.00 0.00 0.00 18 1014.8
20260905103921 28 0.0 0.0 0.00 0.00 0.00 18 1014.8
20260905102921 28 0.0 0.0 0.00 0.00 0.00 18 1014.8
20260905101920 29 0.0 0.0 0.00 0.00 0.00 18 1014.7
20260905100920 30 0.0 0.0 0.00 0.00 0.00 18 1014.7
20260905095920 30 0.0 0.0 0.00 0.00 0.00 17 1014.8
20260905094921 31 0.0 0.0 0.00 0.00 0.00 14 1014.4
20260905093920 32 0.0 0.0 0.00 0.00 0.00 14 1014.5
20260905092920 33 0.0 0.0 0.00 0.00 0.00 13 1014.3
20260905091920 35 0.0 0.0 0.00 0.00 0.00 12 1013.9
20260905090921 33 0.0 0.0 0.00 0.00 0.00 13 1014.4
20260905085920 35 0.0 0.0 0.00 0.00 0.00 12 1013.9
20260905084921 33 0.0 0.0 0.00 0.00 0.00 13 1014.5
20260905083921 33 0.0 0.0 0.00 0.00 0.00 13 1014.4
20260905082921 34 0.0 0.0 0.00 0.00 0.00 13 1014.4
20260905081921 33 0.0 0.0 0.00 0.00 0.00 13 1014.5
20260905080921 33 0.0 0.0 0.00 0.00 0.00 13 1014.7
20260905075923 33 0.0 0.0 0.00 0.00 0.00 13 1014.2
20260905074921 33 0.0 0.0 0.00 0.00 0.00 13 1014.5
20260905073921 34 0.0 0.0 0.00 0.00 0.00 13 1014.1
20260905072922 33 0.0 0.0 0.00 0.00 0.00 13 1014.3
20260905071921 34 0.0 0.0 0.00 0.00 0.00 13 1014.0
20260905070920 34 0.0 0.0 0.00 0.00 0.00 13 1014.2
20260905065921 35 0.0 0.0 0.00 0.00 0.00 13 1014.2
20260905064920 35 0.0 0.0 0.00 0.00 0.00 13 1014.1
20260905063920 35 0.0 0.0 0.00 0.00 0.00 13 1014.0
20260905062921 32 0.0 0.0 0.00 0.00 0.00 14 1014.6
20260905061920 32 0.0 0.0 0.00 0.00 0.00 15 1014.7
20260905060920 32 0.0 0.0 0.00 0.00 0.00 15 1015.0
20260905055920 32 0.0 0.0 0.00 0.00 0.00 16 1015.1
20260905054920 30 0.0 0.0 0.00 0.00 0.00 17 1015.7
20260905053921 30 0.0 0.0 0.00 0.00 0.00 17 1015.5
20260905052920 29 0.0 0.0 0.00 0.00 0.00 18 1015.6